SCP
0 0 0 0 0 0 0 0 0 0 0 0 0 0 0 0 0 0 0 0 0 0
0 0 0 0 0 0 0 0 0 0 0 0 0 0 0 0 0 0 0 0 0 0
0 0 0 0 0 0 0 0 0 0 0 0 0 0 0 0 0 0 0 0 0 0
0 0 0 0 0 0 0 -0 -0 0 -0 0 0 0 0 0 0 0 0 0 0 0
0 0 0 0 0 0 0 0 0 0 0 0 0 0 0 0 0 0 0 0 0 0
0 0 0 0 0 0 0 0 0 0 0 0 0 0 0 0 0 0 0 0 0 0
0 0 0 0 0 0 0 0 0 0 0 0 0 0 0 0 0 0 0 0 0 0
0 0 0 0 0 0 0 0 0 0 0 0 0 0 0 0 0 0 0 0 -0 -0
0 0 0 0 0 0 0 0 0 0 0 0 0 -0 -0 0 -0 -0 -0 -0 -0 -0
0 0 0 0 0 0 0 0 0 0 0 0 0 -0 -0 -0 0 0 0 -0 -0 -0
0 0 0 0 0 0 0 0 0 0 -0 0 0 -0 -0 0 0 0 -0 -0 0 0
0 0 0 0 0 0 0 0 0 0 0 0 0 0 0 0 0 -0 0 0 0 0
0 0 0 0 0 0 0 0 0 0 0 0 0 0 0 0 0 0 0 0 0 0
0 0 0 0 0 0 0 0 0 0 0 0 0 0 0 0 0 0 0 0 0 0
Wind_Speed_500mb
40 37 39 34 33 35 32 25 21 27 24 22 25 22 26 24 16 16 15 14 19 22
37 38 39 35 36 33 35 33 30 32 31 32 31 25 26 18 15 14 10 9 12 20
44 45 36 36 39 40 36 40 35 28 24 23 21 22 12 9 9 7 7 15 16 16
43 53 47 28 28 31 28 27 32 32 24 17 13 7 5 4 6 12 16 19 19 14
42 45 41 28 28 31 28 26 30 28 22 18 17 11 10 5 4 10 15 19 15 11
45 43 41 36 27 22 27 23 25 28 21 15 13 4 4 8 12 16 19 19 11 12
42 44 34 28 24 22 26 27 19 19 15 15 11 9 18 20 21 14 11 9 11 15
38 37 33 28 26 23 25 21 11 15 15 13 14 18 26 26 23 18 11 5 11 16
29 33 32 30 27 28 24 18 15 20 21 21 19 21 21 21 13 5 3 6 11 15
35 39 38 33 30 28 24 21 20 24 21 17 15 16 17 14 13 9 2 8 14 18
44 41 37 37 33 28 28 23 15 18 21 19 19 18 23 21 17 11 12 16 10 13
43 36 38 40 38 29 29 30 29 27 26 28 26 18 12 11 8 10 13 14 15 18
39 38 38 39 44 45 40 34 30 26 26 28 25 24 20 20 20 19 27 27 24 22
36 39 40 35 35 38 38 36 34 31 30 32 33 33 30 28 35 40 39 37 34 33
Wind_Direction_500mb
335 328 326 323 321 323 317 311 309 307 295 305 303 302 299 303 292 293 291 327 350 343
344 338 334 327 325 320 321 316 305 293 289 291 286 281 291 287 281 279 266 345 319 336
340 334 335 318 337 330 314 331 323 315 298 305 296 284 283 300 293 318 330 330 316 323
350 340 310 342 334 339 344 343 340 344 335 346 316 306 7 18 355 0 334 325 319 306
348 353 2 349 347 346 340 352 342 341 337 346 335 7 71 3 0 330 311 325 314 304
348 346 333 333 332 335 332 341 353 346 343 354 342 346 262 279 291 305 318 339 334 322
350 350 356 354 345 332 316 310 310 341 335 347 326 257 261 268 293 322 320 351 349 319
351 1 2 17 18 21 20 14 10 339 337 321 302 294 291 285 295 302 297 326 321 322
7 359 358 5 6 354 4 359 346 329 338 328 321 312 305 308 294 262 299 241 284 308
0 350 344 345 342 338 343 347 349 344 3 28 24 29 24 59 82 99 9 318 330 328
354 353 352 351 353 359 12 15 25 42 44 43 31 46 61 69 77 82 2 349 1 4
5 19 20 17 28 41 49 53 64 66 53 34 31 47 58 53 15 352 8 25 45 73
27 23 24 49 60 65 50 45 34 35 32 27 53 57 65 65 77 69 81 75 78 79
34 41 54 66 58 39 46 52 49 44 56 63 65 68 70 76 86 85 81 73 75 78
Wind_Speed_850mb
40 37 39 34 33 35 32 25 21 27 24 22 25 22 26 24 16 16 15 14 19 22
37 38 39 35 36 33 35 33 30 32 31 32 31 25 26 18 15 14 10 9 12 20
44 45 36 36 39 40 36 40 35 28 24 23 21 22 12 9 9 7 7 15 16 16
43 53 47 28 28 31 28 27 32 32 24 17 13 7 5 4 6 12 16 19 19 14
42 45 41 28 28 31 28 26 30 28 22 18 17 11 10 5 4 10 15 19 15 11
45 43 41 36 27 22 27 23 25 28 21 15 13 4 4 8 12 16 19 19 11 12
42 44 34 28 24 22 26 27 19 19 15 15 11 9 18 20 21 14 11 9 11 15
38 37 33 28 26 23 25 21 11 15 15 13 14 18 26 26 23 18 11 5 11 16
29 33 32 30 27 28 24 18 15 20 21 21 19 21 21 21 13 5 3 6 11 15
35 39 38 33 30 28 24 21 20 24 21 17 15 16 17 14 13 9 2 8 14 18
44 41 37 37 33 28 28 23 15 18 21 19 19 18 23 21 17 11 12 16 10 13
43 36 38 40 38 29 29 30 29 27 26 28 26 18 12 11 8 10 13 14 15 18
39 38 38 39 44 45 40 34 30 26 26 28 25 24 20 20 20 19 27 27 24 22
36 39 40 35 35 38 38 36 34 31 30 32 33 33 30 28 35 40 39 37 34 33
Wind_Direction_850mb
335 328 326 323 321 323 317 311 309 307 295 305 303 302 299 303 292 293 291 327 350 343
344 338 334 327 325 320 321 316 305 293 289 291 286 281 291 287 281 279 266 345 319 336
340 334 335 318 337 330 314 331 323 315 298 305 296 284 283 300 293 318 330 330 316 323
350 340 310 342 334 339 344 343 340 344 335 346 316 306 7 18 355 0 334 325 319 306
348 353 2 349 347 346 340 352 342 341 337 346 335 7 71 3 0 330 311 325 314 304
348 346 333 333 332 335 332 341 353 346 343 354 342 346 262 279 291 305 318 339 334 322
350 350 356 354 345 332 316 310 310 341 335 347 326 257 261 268 293 322 320 351 349 319
351 1 2 17 18 21 20 14 10 339 337 321 302 294 291 285 295 302 297 326 321 322
7 359 358 5 6 354 4 359 346 329 338 328 321 312 305 308 294 262 299 241 284 308
0 350 344 345 342 338 343 347 349 344 3 28 24 29 24 59 82 99 9 318 330 328
354 353 352 351 353 359 12 15 25 42 44 43 31 46 61 69 77 82 2 349 1 4
5 19 20 17 28 41 49 53 64 66 53 34 31 47 58 53 15 352 8 25 45 73
27 23 24 49 60 65 50 45 34 35 32 27 53 57 65 65 77 69 81 75 78 79
34 41 54 66 58 39 46 52 49 44 56 63 65 68 70 76 86 85 81 73 75 78